Regional Weather Roundup
Issued by NWS

Home | Current Version | Previous Version | Text Only | Print | Product List | Glossary Off
Versions: 1 2 3 4 5 6 7 8 9 10 11 12 13 14 15 16 17 18 19 20 21 22 23 24 25 26 27 28 29 30 31 32 33 34 35 36 37 38 39 40 41 42 43 44 45 46 47 48 49 50

000
ASUS43 KMPX 230410
RWRMN
WEATHER ROUNDUP FOR MINNESOTA
NATIONAL WEATHER SERVICE TWIN CITIES/CHANHASSEN MN
1100 PM CDT FRI JUL 22 2016


NOTE: "FAIR" INDICATES FEW OR NO CLOUDS BELOW 12,000 FEET WITH NO
SIGNIFICANT WEATHER AND/OR OBSTRUCTIONS TO VISIBILITY. N/A MEANS
CURRENT SKY AND/OR WEATHER CONDITIONS ARE NOT AVAILABLE.

MNZ060>063-068>070-230500-
   Twin Cities Metro

CITY           SKY/WX    TMP DP  RH WIND       PRES   REMARKS
TWIN CITIES    CLOUDY    84  64  50 E7        29.97S
ST PAUL        CLOUDY    79  67  66 CALM      29.97S
CRYSTAL        PTCLDY    78  63  59 CALM      29.96S
BLAINE         CLOUDY    79  66  65 CALM      29.98R
LAKEVILLE      PTCLDY    73  68  83 S5        29.98S
EDEN PRAIRIE   CLOUDY    79  67  66 NE5       29.96S
LAKEVILLE      PTCLDY    73  68  83 S5        29.98S
SOUTH ST PAUL  MOCLDY    81  66  60 CALM      29.97R
LAKE ELMO      FAIR      73  68  83 CALM      29.99S
$$
MNZ001>005-007-008-013>017-022>024-027-028-230500-
   Northwest Minnesota

CITY           SKY/WX    TMP DP  RH WIND       PRES   REMARKS
BEMIDJI        PTCLDY    68  64  88 NW3       30.04R
HALLOCK        MOCLDY    70  66  88 CALM      30.00S
ROSEAU         CLOUDY    64  61  88 CALM      30.03R
WARROAD        CLOUDY    66  61  82 CALM      30.03R
THIEF RVR FALL CLOUDY    67  64  90 CALM      30.03R
CROOKSTON      CLOUDY    73  64  73 NE6       30.01S
FOSSTON        CLOUDY    66  64  94 CALM      30.03S
DETROIT LAKES  CLOUDY    75  66  73 CALM      30.03S
MOORHEAD       CLOUDY    73  68  83 CALM      30.00R
PARK RAPIDS    CLOUDY    76  65  68 NE3       30.03R
MAHNOMEN       FAIR      69  66  89 E5        30.02R
$$
MNZ006-009>011-018-025>026-230500-
   North Central Minnesota

CITY           SKY/WX    TMP DP  RH WIND       PRES   REMARKS
BAUDETTE       CLEAR     64  61  90 W3        30.02R
FLAG ISLAND    CLEAR     73  61  64 NW5       30.00R
INTL FALLS     CLEAR     61  58  90 CALM      30.00R
WASKISH        CLOUDY    64  63  94 CALM      30.02R
BIG FORK       CLEAR     61  61 100 CALM      30.03R
LONGVILLE      PTCLDY    66  66 100 CALM      30.02S FOG
GRAND RAPIDS   PTCLDY    65  62  90 CALM      30.04R
CRANE LAKE     CLEAR     59  57  94 CALM      30.02R
ORR            CLEAR     63  57  82 CALM      30.00R
COOK           CLEAR     64  63  94 CALM      30.02S
WALKER         FAIR      68  65  88 CALM      30.03R
$$
MNZ012-019>021-037-230500-
   Northeast Minnesota

CITY           SKY/WX    TMP DP  RH WIND       PRES   REMARKS
DULUTH         CLEAR     73  58  59 NW5       30.00R
ELY            CLEAR     61  57  88 CALM      30.01R
HIBBING        CLOUDY    62  61  96 CALM      30.02R
EVELETH        CLEAR     63  61  94 CALM      30.03R
DULUTH HARBOR  CLEAR     79  66  65 SW5       29.96S
TWO HARBORS    CLEAR     73  63  68 NW5       29.97R
SILVER BAY     CLEAR     64  63  94 CALM      29.97R
GRAND MARAIS     N/A     75  52  44 NW8       29.94R
G MARAIS ARPRT CLEAR     66  52  59 W5        30.02R
$$
MNZ029>031-032-039>041-046>048-054>057-064-230500-
   West Central Minnesota

CITY           SKY/WX    TMP DP  RH WIND       PRES   REMARKS
FERGUS FALLS   CLOUDY    79  70  73 CALM      30.00R
WHEATON        MOCLDY    73  72  94 CALM      30.00R
MORRIS         CLOUDY    73  70  88 CALM      29.97F
ALEXANDRIA     PTCLDY    77  69  76 CALM      30.01S
ELBOW LAKE     FAIR      77  70  79 SE5       29.99S
WADENA         CLOUDY    70  66  88 CALM      30.01R
GLENWOOD       CLOUDY    73  68  83 E5        30.00F
APPLETON       PTCLDY    73  70  88 CALM      29.96F
BENSON         PTCLDY    72  64  78 CALM      29.97F
ORTONVILLE     MOCLDY    75  68  78 E3        29.97S
MADISON        CLOUDY    73  66  78 E5        29.97R
WILLMAR        FAIR      73  68  83 CALM      29.99S
$$
MNZ033>034-036-042>043-049>051-058-059-230500-
   Central Minnesota

CITY           SKY/WX    TMP DP  RH WIND       PRES   REMARKS
ST CLOUD       CLOUDY    70  69  97 CALM      29.98S
SAUK CENTRE    FAIR      71  69  95 CALM      30.00R
PAYNESVILLE    MOCLDY    70  69  98 CALM      30.00R
AITKIN         PTCLDY    70  64  83 CALM      30.00S
PINE RIVER     PTCLDY    70  66  88 CALM      30.05R
BRAINERD       PTCLDY    72  71  97 CALM      30.01R
STAPLES        MOCLDY    75  68  78 NE3       30.01R
LONG PRAIRIE   FAIR      72  72 100 CALM      30.01R
LITTLE FALLS   CLOUDY    70  68  94 CALM      29.99R
LITCHFIELD     PTCLDY    79  70  73 CALM      29.99S
BUFFALO        PTCLDY    76  67  72 CALM      29.99S
MAPLE LAKE     CLOUDY    74  69  85 CALM      29.99S
HUTCHINSON     MOCLDY    75  70  83 NE6       29.99R
$$
MNZ037-044-045-052-053-230500-
   East Central Minnesota

CITY           SKY/WX    TMP DP  RH WIND       PRES   REMARKS
PRINCETON      CLOUDY    72  70  94 CALM      29.99S
MORA           PTCLDY    70  70 100 CALM      30.01R
CAMBRIDGE      CLEAR     73  64  73 CALM      29.97S
RUSH CITY      CLEAR     69  67  93 CALM      29.99R
MOOSE LAKE     CLOUDY    70  68  94 CALM      29.99S
HINCKLEY       FAIR      70  70 100 CALM      29.99S
CLOQUET        CLOUDY    70  63  78 CALM      30.00F
MCGREGOR       CLOUDY    72  68  88 CALM      30.02R
$$
MNZ071>073-080-081-089-090-097-098-230500-
   Southwest Minnesota

CITY           SKY/WX    TMP DP  RH WIND       PRES   REMARKS
MONTEVIDEO     PTCLDY    73  70  88 E5        29.98S
GRANITE FALLS  CLOUDY    77  69  78 NE6       29.98S
CANBY          CLOUDY    75  69  79 CALM      29.98R
MARSHALL       CLOUDY    80  69  69 E7        29.97S
REDWOOD FALLS  CLOUDY    79  67  66 SE5       29.96R
OLIVIA         CLOUDY    77  68  73 NE5       29.97R
PIPESTONE      CLOUDY    81  73  78 E8        29.98S
WINDOM         CLOUDY    79  75  89 NE5       29.98R
WORTHINGTON    PTCLDY    80  79  96 E7        29.98R
JACKSON        PTCLDY    81  77  89 SE8       29.98R
TRACY          PTCLDY    79  72  77 SE8       29.97F
SLAYTON        CLOUDY    78  75  89 E5        30.00S
$$
MNZ065>067-074>077-082>085-091>093-230500-
   South Central Minnesota

CITY           SKY/WX    TMP DP  RH WIND       PRES   REMARKS
MANKATO        MOCLDY    81  70  69 SE9       29.97S
NEW ULM        PTCLDY    81  70  69 SE7       29.96S
ST JAMES       CLOUDY    73  72  94 NE5       29.97S
FAIRMONT       MOCLDY   N/A N/A N/A E6        29.96S
GLENCOE        MOCLDY    74  71  89 CALM      29.96F
FARIBAULT      PTCLDY    79  70  73 E5        29.98F
OWATONNA       PTCLDY    79  72  78 E6        29.99S
WASECA         PTCLDY    77  72  83 E7        30.00S
ALBERT LEA     PTCLDY    81  79  94 SE5       30.00S
$$
MNZ078>079-086>088-094>096-230500-
   Southeast Minnesota

CITY           SKY/WX    TMP DP  RH WIND       PRES   REMARKS
ROCHESTER      PTCLDY    79  77  94 S5        30.02R
RED WING       PTCLDY    73  68  83 CALM      29.96F
STANTON        CLOUDY    70  66  88 CALM      29.98S
DODGE CENTER   PTCLDY    75  72  88 CALM      30.01S
WINONA         CLEAR     77  73  88 CALM      29.99R
AUSTIN         PTCLDY    79  75  89 S3        30.00S
PRESTON        CLEAR     78  75  88 S6        30.02S
$$
ABBREVIATIONS USED IN REMARKS
   TC - TEMPERATURES IN CELSIUS
  WCI - WIND CHILL INDEX
   HX - HEAT INDEX
  VSB - VISIBILITY
$$




USA.gov is the U.S. government's official web portal to all federal, state and local government web resources and services.